Satellite: NOAA-19
Catalog number: 33591
Epoch time:      10229.76544613
Element set:    0643
Inclination:      098.7901 deg
RA of node:       170.5845 deg
Eccentricity:    0.0015012
Arg of perigee:   113.0771 deg
Mean anomaly:     247.2025 deg
Mean motion:   14.11074991 rev/day
Decay rate:        9.0e-07 rev/day^2
Epoch rev:           07859
Checksum:              295

/EX
SB KEPS @ AMSAT  $ORB10230.M
Orbital Elements  10230.MISC

HR AMSAT ORBITAL ELEMENTS FOR MANNED AND MISCELLANEOUS SATELLITES
FROM WA5QGD FORT WORTH,TX August 18, 2010
Send Subscribe/unsubscribe to KEPS at http://www.amsat.org/mailman/listinfo/kep
BID: ORB10230.M
TO ALL RADIO AMATEURS BT

Satellite: HUBBLE
Catalog number: 20580
Epoch time:      10230.21707886
Element set:     629
Inclination:      028.4680 deg
RA of node:       194.9063 deg
Eccentricity:    0.0003678
Arg of perigee:   141.1071 deg
Mean anomaly:     218.9781 deg
Mean motion:   15.01017702 rev/day
Decay rate:       5.08e-06 rev/day^2
Epoch rev:           91408
Checksum:              280

Satellite: ISS
Catalog number: 25544
Epoch time:      10230.69424966
Element set:     729
Inclination:      051.6460 deg
RA of node:       270.7321 deg
Eccentricity:    0.0005761
Arg of perigee:   240.7464 deg
Mean anomaly:     217.5417 deg
Mean motion:   15.71898830 rev/day
Decay rate:     1.3402e-04 rev/day^2
Epoch rev:           67330
Checksum:              293

Satellite: CO-58
Catalog number: 28895
Epoch time:      10229.18613557
Element set:    0660
Inclination:      098.0048 deg
RA of node:       111.6152 deg
Eccentricity:    0.0019135
Arg of perigee:   094.3512 deg
Mean anomaly:     265.9862 deg
Mean motion:   14.59921001 rev/day
Decay rate:        7.2e-07 rev/day^2
Epoch rev:           25588
Checksum:              314

Satellite: FALCON
Catalog number: 30776
Epoch time:      10230.56030999
Element set:     894
Inclination:      035.4341 deg
RA of node:       025.5858 deg
Eccentricity:    0.0001820
Arg of perigee:   335.1792 deg
Mean anomaly:     024.8834 deg
Mean motion:   15.03770964 rev/day
Decay rate:       9.37e-06 rev/day^2
Epoch rev:           18945
Checksum:              311

Satellite: MAST
Catalog number: 31126
Epoch time:      10230.44935067
Element set:     940
Inclination:      097.9320 deg
RA of node:       269.2274 deg
Eccentricity:    0.0095248
Arg of perigee:   033.3914 deg
Mean anomaly:     327.3246 deg
Mean motion:   14.53611594 rev/day
Decay rate:        9.1e-07 rev/day^2
Epoch rev:           17710
Checksum:              285

Satellite: CAPE1
Catalog number: 31130
Epoch time:      10230.63007204
Element set:     961
Inclination:      097.9337 deg
RA of node:       266.6847 deg
Eccentricity:    0.0103617
Arg of perigee:   041.0230 deg
Mean anomaly:     319.8690 deg
Mean motion:   14.52210389 rev/day
Decay rate:       -2.8e-07 rev/day^2
Epoch rev:           17672
Checksum:              273

Satellite: COMPASS
Catalog number: 32787
Epoch time:      10230.28859440
Element set:     752
Inclination:      097.8902 deg
RA of node:       294.1786 deg
Eccentricity:    0.0016999
Arg of perigee:   084.2133 deg
Mean anomaly:     276.0996 deg
Mean motion:   14.81941063 rev/day
Decay rate:       6.85e-06 rev/day^2
Epoch rev:           12469
Checksum:              340

Satellite: AAUSAT2
Catalog number: 32788
Epoch time:      10230.42062069
Element set:     744
Inclination:      097.8900 deg
RA of node:       294.4507 deg
Eccentricity:    0.0016747
Arg of perigee:   083.6990 deg
Mean anomaly:     276.6123 deg
Mean motion:   14.82087270 rev/day
Decay rate:       6.48e-06 rev/day^2
Epoch rev:           12472
Checksum:              313

Satellite: DO-64
Catalog number: 32789
Epoch time:      10229.68032554
Element set:    0764
Inclination:      097.8961 deg
RA of node:       294.2645 deg
Eccentricity:    0.0016775
Arg of perigee:   084.6631 deg
Mean anomaly:     275.6536 deg
Mean motion:   14.82260852 rev/day
Decay rate:       8.96e-06 rev/day^2
Epoch rev:           12461
Checksum:              348

Satellite: CO-66
Catalog number: 32791
Epoch time:      10230.65740715
Element set:     746
Inclination:      097.8912 deg
RA of node:       294.5487 deg
Eccentricity:    0.0017253
Arg of perigee:   080.6674 deg
Mean anomaly:     279.6491 deg
Mean motion:   14.81713513 rev/day
Decay rate:        3.2e-07 rev/day^2
Epoch rev:           12470
Checksum:              318

Satellite: RS-30
Catalog number: 32953
Epoch time:      10230.74996604
Element set:     962
Inclination:      082.5054 deg
RA of node:       350.7712 deg
Eccentricity:    0.0018147
Arg of perigee:   329.1960 deg
Mean anomaly:     030.8056 deg
Mean motion:   12.43007232 rev/day
Decay rate:        1.0e-07 rev/day^2
Epoch rev:           10151
Checksum:              259

Satellite: TACSAT-3
Catalog number: 35001
Epoch time:      10229.95824531
Element set:    0367
Inclination:      040.4544 deg
RA of node:       202.9115 deg
Eccentricity:    0.0020116
Arg of perigee:   105.7772 deg
Mean anomaly:     254.5283 deg
Mean motion:   15.42354096 rev/day
Decay rate:      6.386e-05 rev/day^2
Epoch rev:           07017
Checksum:              274

